[[{"header":{"parameterUnit":"m.s-1","parameterCategory":2,"la1":30.2991,"la2":30.254,"lo1":-89.0895,"lo2":-89.0444,"dy":0.0017,"dx":0.0017,"nx":28,"ny":28,"refTime":"2024-05-29T03:00:00:Z","depth":"0","parameterNumber":2,"parameterNumberName":"U-component_of_CURRENTS"},"data":[0,0,0,0,0,0,0,0,0,0,0,0,0,0,0,0,0,0,0,0,0,0,0,0,0,0,0,0,0,0,0,0,0,0,0,0,0,0,0,0,0,0,0,0,0,0,0,0,0,0,0,0,0,0,0,0,0,0,0.4039,0.404,0,0.4146,0.4147,0.4148,0.4178,0.4177,0.4177,0.4176,0.4276,0.4279,0.4282,0,0,0,0,0,0,0,0,0,0,0,0,0,0.3905,0.3907,0.4039,0.404,0.4042,0.4146,0.4147,0.4149,0.4178,0.4177,0.4177,0.4176,0.4275,0.4278,0.4282,0,0,0,0,0,0,0,0,0,0,0,0,0,0.3982,0.3908,0.4039,0.4069,0.4073,0.4145,0.4147,0.4149,0.4178,0.4177,0.4176,0.4176,0.4273,0.4278,0.4283,0.433,0,0,0.4297,0.43,0,0,0,0,0,0,0,0,0.3978,0.3987,0.4063,0.4067,0.4071,0.4148,0.4137,0.4209,0.4178,0.4138,0.4176,0.4175,0.4233,0.4241,0.4263,0.4335,0.4339,0.4298,0.4301,0.4303,0.4304,0,0,0,0,0,0,0,0.3972,0.3983,0.4081,0.4065,0.407,0.4093,0.4102,0.4151,0.4189,0.4141,0.4144,0.4157,0.4235,0.4258,0.4266,0.434,0.4298,0.4302,0.4305,0.4307,0.4597,0.4602,0,0,0,0,0,0,0.3959,0.3978,0.4078,0.4084,0.4022,0.4096,0.4107,0.4124,0.4189,0.4198,0.4157,0.4158,0.4251,0.426,0.4269,0.4441,0.4303,0.4307,0.431,0.4592,0.4598,0.4603,0,0,0,0,0,0,0.3956,0.3967,0.4073,0.4033,0.4048,0.4099,0.4118,0.4127,0.4154,0.4201,0.4209,0.4176,0.425,0.4262,0.4349,0.444,0.4309,0.4314,0.4587,0.4594,0.4601,0.4713,0,0,0,0,0,0,0.3952,0.3965,0.3974,0.4033,0.405,0.4138,0.412,0.4129,0.4163,0.4164,0.422,0.4228,0.425,0.4342,0.4353,0.4445,0.4318,0.458,0.459,0.4598,0.4703,0.4723,0.474,0,0,0,0,0,0.3946,0.3955,0.3974,0.3986,0.406,0.414,0.4153,0.4184,0.4164,0.4199,0.4243,0.4226,0.4409,0.4349,0.4362,0.4456,0.4576,0.4587,0.4598,0.4695,0.4719,0.474,0,0,0,0,0,0,0.3889,0.3961,0.3982,0.4009,0.4082,0.4145,0.4169,0.4187,0.4247,0.4246,0.4272,0.4286,0.4412,0.4415,0.4348,0.4573,0.4497,0.4511,0.4566,0.4589,0.4608,0.4577,0.4321,0,0,0,0,0,0.3885,0.3918,0.3996,0.4022,0.4057,0.4114,0.4145,0.4179,0.4236,0.426,0.4302,0.4367,0.4469,0.4506,0.4586,0.4682,0.4671,0.476,0.4779,0.4794,0.4783,0.4827,0.4846,0.4639,0.4639,0.4639,0,0,0.3865,0.3913,0.3927,0.4015,0.4065,0.4162,0.4131,0.4194,0.4287,0.4263,0.4383,0.4433,0.4513,0.465,0.4705,0.4657,0.4863,0.4808,0.482,0.48,0.484,0.4859,0.4876,0.4647,0.4645,0.4644,0,0,0.3873,0.3894,0.3945,0.4023,0.4119,0.4178,0.4199,0.4284,0.4331,0.4458,0.4483,0.4568,0.4706,0.4777,0.4835,0.4996,0.4967,0.5042,0.5098,0.5143,0.5158,0.5172,0.5229,0.5246,0.5039,0.504,0.504,0,0.3847,0.3936,0.3972,0.4068,0.4134,0.4193,0.4286,0.437,0.4477,0.4515,0.4519,0.472,0.4777,0.4935,0.501,0.5037,0.5051,0.5001,0.5161,0.5174,0.5185,0.524,0.5257,0.5046,0.5046,0.5045,0.5044,0,0.3932,0.4009,0.4046,0.4199,0.4271,0.4359,0.4481,0.4565,0.4622,0.4687,0.4833,0.4913,0.5008,0.5078,0.5104,0.5237,0.5222,0.5182,0.5087,0.5212,0.5264,0.528,0.5056,0.5054,0.5052,0.505,0,0,0.3852,0.4064,0.4079,0.4172,0.4346,0.4414,0.4577,0.4718,0.4795,0.4916,0.501,0.5195,0.5172,0.5235,0.5269,0.532,0.5446,0.529,0.5289,0.5316,0.5558,0.5517,0.5529,0.5424,0.5426,0.5428,0.5576,0,0.3912,0.4098,0.4189,0.437,0.4476,0.4586,0.4721,0.4849,0.4948,0.5059,0.5143,0.5257,0.5257,0.5299,0.5357,0.5426,0.5487,0.541,0.5458,0.546,0.5381,0.5546,0.5258,0.5361,0.5591,0.5593,0.5595,0,0.3977,0.4095,0.4265,0.4461,0.4508,0.4615,0.4788,0.492,0.5084,0.515,0.5245,0.5304,0.5436,0.5398,0.555,0.5498,0.5538,0.5577,0.5582,0.5501,0.5447,0.5269,0.5381,0.527,0.5619,0.5617,0.5615,0,0.3919,0.4145,0.427,0.4349,0.4578,0.4644,0.4754,0.4918,0.4999,0.5181,0.5234,0.5387,0.5458,0.5539,0.564,0.56,0.5785,0.5729,0.5733,0.573,0.5472,0.5442,0.5442,0.582,0.582,0.582,0.5819,0,0.3959,0.4064,0.4246,0.4324,0.4439,0.4597,0.4706,0.4841,0.4986,0.5085,0.5233,0.5333,0.5491,0.5617,0.5682,0.5777,0.5818,0.5776,0.5774,0.5513,0.5486,0.5363,0.5316,0.5825,0.5824,0.5823,0.5822,0,0.3903,0.4037,0.4181,0.4376,0.4419,0.4493,0.4645,0.4733,0.4877,0.5011,0.5068,0.5305,0.5507,0.5656,0.5831,0.5821,0.5761,0.5933,0.5635,0.5596,0.5466,0.5436,0.5244,0.51,0.596,0.596,0.596,0,0.3905,0.3973,0.4153,0.4207,0.4289,0.44,0.4475,0.4648,0.4737,0.4994,0.5055,0.5305,0.5469,0.5719,0.578,0.5903,0.5769,0.5703,0.5571,0.5455,0.5421,0.5218,0.5096,0.5295,0.529,0.5285,0.5282,0,0.3882,0.3932,0.4037,0.4125,0.4201,0.4298,0.4417,0.4454,0.4681,0.4781,0.4969,0.5117,0.5395,0.5432,0.5617,0.5644,0.5411,0.5617,0.5544,0.4959,0.4682,0.4541,0.5234,0.5242,0.5246,0.5249,0.5251,0.5253,0.3825,0.3868,0.3969,0.4042,0.4119,0.4178,0.4184,0.432,0.4403,0.4527,0.477,0.4874,0.5059,0.5277,0.5291,0.5151,0.5175,0.5007,0.5007,0.4834,0.4595,0.5236,0.521,0.5213,0.5216,0.5219,0.5222,0,0.3738,0.3803,0.3881,0.3948,0.396,0.4049,0.4128,0.4098,0.412,0.4306,0.4406,0.4495,0.4543,0.4684,0.4685,0.4554,0.4299,0.4465,0.4081,0.4015,0.4623,0.4493,0.4248,0.4248,0.4248,0.4248,0.4248,0.4248,0.3697,0.3725,0.3769,0.3753,0.3792,0.3728,0.3729,0.3715,0.3781,0.3779,0.3808,0.3936,0.4207,0.4317,0.4219,0.4113,0.3837,0.3634,0.3726,0.4142,0.419,0.4236,0.4104,0.378,0.378,0.2864,0.2857,0.2852]},{"header":{"parameterUnit":"m.s-1","parameterCategory":2,"la1":30.2991,"la2":30.254,"lo1":-89.0895,"lo2":-89.0444,"dy":0.0017,"dx":0.0017,"nx":28,"ny":28,"refTime":"2024-05-29T03:00:00:Z","depth":"0","parameterNumber":3,"parameterNumberName":"V-component_of_CURRENTS"},"data":[0,0,0,0,0,0,0,0,0,0,0,0,0,0,0,0,0,0,0,0,0,0,0,0,0,0,0,0,0,0,0,0,0,0,0,0,0,0,0,0,0,0,0,0,0,0,0,0,0,0,0,0,0,0,0,0,0,0,-0.0233,-0.0235,0,-0.0364,-0.0366,-0.0368,-0.043,-0.043,-0.0429,-0.0429,-0.072,-0.0728,-0.0736,0,0,0,0,0,0,0,0,0,0,0,0,0,-0.0139,-0.014,-0.0233,-0.0235,-0.0236,-0.0364,-0.0366,-0.0369,-0.043,-0.043,-0.0429,-0.0429,-0.0717,-0.0727,-0.0737,0,0,0,0,0,0,0,0,0,0,0,0,0,-0.022,-0.0141,-0.0233,-0.0279,-0.0284,-0.0364,-0.0366,-0.0369,-0.0431,-0.043,-0.0429,-0.0428,-0.0714,-0.0726,-0.0738,-0.0828,0,0,-0.0775,-0.0781,0,0,0,0,0,0,0,0,-0.0215,-0.0224,-0.0271,-0.0276,-0.0282,-0.0377,-0.044,-0.0529,-0.0431,-0.038,-0.0429,-0.0428,-0.0618,-0.0638,-0.0668,-0.0841,-0.0854,-0.0777,-0.0784,-0.0789,-0.0793,0,0,0,0,0,0,0,-0.0209,-0.0219,-0.029,-0.0272,-0.0279,-0.0328,-0.0338,-0.0457,-0.0507,-0.0384,-0.0388,-0.0396,-0.0622,-0.0656,-0.0676,-0.0858,-0.0776,-0.0787,-0.0795,-0.0799,-0.115,-0.1152,0,0,0,0,0,0,-0.018,-0.0213,-0.0285,-0.0293,-0.0241,-0.0329,-0.0341,-0.035,-0.0503,-0.0523,-0.0396,-0.0398,-0.0635,-0.0661,-0.0686,-0.0813,-0.0789,-0.0801,-0.0808,-0.1148,-0.115,-0.1152,0,0,0,0,0,0,-0.0178,-0.0185,-0.028,-0.0253,-0.0268,-0.033,-0.0341,-0.0353,-0.0384,-0.0509,-0.0533,-0.0413,-0.0636,-0.0669,-0.0806,-0.0824,-0.0806,-0.0817,-0.1146,-0.1149,-0.1151,-0.1061,0,0,0,0,0,0,-0.0174,-0.0184,-0.0184,-0.0251,-0.0268,-0.0327,-0.0342,-0.0356,-0.0388,-0.0392,-0.0533,-0.0558,-0.0638,-0.0787,-0.0818,-0.0841,-0.0827,-0.1143,-0.1147,-0.115,-0.1061,-0.106,-0.1059,0,0,0,0,0,-0.0171,-0.0169,-0.0184,-0.0193,-0.0265,-0.0328,-0.0342,-0.0387,-0.0389,-0.0411,-0.0511,-0.0554,-0.0831,-0.0799,-0.0835,-0.0862,-0.1141,-0.1146,-0.115,-0.1062,-0.106,-0.1059,0,0,0,0,0,0,-0.0129,-0.0177,-0.0194,-0.0207,-0.0263,-0.0336,-0.0353,-0.0384,-0.0477,-0.0484,-0.0594,-0.0629,-0.0752,-0.0829,-0.079,-0.0975,-0.0989,-0.1,-0.0909,-0.0909,-0.0908,-0.0819,-0.0837,0,0,0,0,0,-0.0119,-0.013,-0.0191,-0.0203,-0.0223,-0.0288,-0.0317,-0.0352,-0.0436,-0.0472,-0.0577,-0.0691,-0.08,-0.0868,-0.0981,-0.1094,-0.1086,-0.1133,-0.1132,-0.113,-0.1084,-0.1096,-0.1088,-0.1167,-0.1167,-0.1167,0,0,-0.0106,-0.0132,-0.0139,-0.0195,-0.0236,-0.0283,-0.0305,-0.0347,-0.0394,-0.0497,-0.0603,-0.0699,-0.0831,-0.0949,-0.101,-0.1015,-0.1107,-0.1135,-0.1133,-0.1087,-0.1099,-0.109,-0.1083,-0.117,-0.1169,-0.1169,0,0,-0.0086,-0.0108,-0.0113,-0.0163,-0.022,-0.0271,-0.0279,-0.0364,-0.0404,-0.0522,-0.0596,-0.0686,-0.0885,-0.0954,-0.102,-0.1085,-0.11,-0.114,-0.1067,-0.108,-0.1071,-0.1063,-0.1033,-0.1023,-0.114,-0.1139,-0.1139,0,-0.0067,-0.0077,-0.0127,-0.0158,-0.018,-0.0261,-0.0278,-0.0355,-0.048,-0.049,-0.0549,-0.0753,-0.0875,-0.0963,-0.099,-0.1076,-0.1068,-0.1054,-0.1069,-0.1062,-0.1055,-0.1026,-0.1017,-0.1136,-0.1136,-0.1136,-0.1137,0,-0.0063,-0.0076,-0.0083,-0.0145,-0.0189,-0.0215,-0.0311,-0.036,-0.042,-0.0479,-0.0571,-0.0726,-0.0817,-0.0895,-0.0973,-0.0996,-0.0999,-0.1059,-0.1049,-0.104,-0.1013,-0.1004,-0.113,-0.1131,-0.1133,-0.1134,0,0,0.0005,-0.0059,-0.0061,-0.0059,-0.0169,-0.0188,-0.0265,-0.0314,-0.0303,-0.0458,-0.0446,-0.0653,-0.0682,-0.0755,-0.0859,-0.089,-0.0861,-0.0945,-0.0948,-0.087,-0.0843,-0.0797,-0.0783,-0.0918,-0.0916,-0.0915,-0.0836,0,0.0036,0.0027,-0.0029,-0.0045,-0.0048,-0.0129,-0.0171,-0.0235,-0.0301,-0.0331,-0.0453,-0.0519,-0.0651,-0.0677,-0.0729,-0.0833,-0.0835,-0.0873,-0.09,-0.0899,-0.0824,-0.0771,-0.0726,-0.0647,-0.0828,-0.0826,-0.0825,0,0.0063,0.0066,0.0079,0.0072,0.0069,0.0042,0.0041,-0.0013,-0.0085,-0.0125,-0.0195,-0.0304,-0.039,-0.0499,-0.0614,-0.063,-0.0705,-0.0783,-0.0783,-0.0752,-0.0836,-0.0695,-0.0625,-0.0853,-0.0812,-0.0813,-0.0814,0,0.0172,0.0148,0.0189,0.017,0.0126,0.0156,0.0139,0.0081,0.0089,0.0026,0.0045,-0.01,-0.014,-0.0277,-0.0464,-0.0529,-0.0553,-0.0671,-0.0684,-0.0681,-0.0649,-0.0646,-0.0759,-0.0695,-0.0695,-0.0695,-0.0695,0,0.0235,0.0266,0.0262,0.0281,0.0365,0.0292,0.037,0.0334,0.0318,0.0373,0.0185,0.0214,-0.0083,-0.0166,-0.0354,-0.0459,-0.0462,-0.0617,-0.0646,-0.062,-0.0615,-0.082,-0.0952,-0.0692,-0.0693,-0.0693,-0.0694,0,0.0328,0.0314,0.0376,0.0396,0.0416,0.0481,0.0521,0.0571,0.0547,0.0619,0.061,0.0473,0.0378,0.0115,-0.0087,-0.0276,-0.0509,-0.0449,-0.0374,-0.0395,-0.0651,-0.0778,-0.0845,-0.0928,-0.0451,-0.0449,-0.0447,0,0.0373,0.0415,0.0486,0.0545,0.0566,0.0646,0.0703,0.069,0.0749,0.0801,0.0861,0.0786,0.077,0.0502,0.0155,-0.0107,-0.0368,-0.0262,-0.0397,-0.0604,-0.077,-0.0877,-0.0952,-0.0322,-0.0319,-0.0317,-0.0316,0,0.0473,0.0505,0.056,0.0684,0.0772,0.0857,0.0947,0.1034,0.1052,0.1156,0.1285,0.1293,0.1041,0.0776,0.0381,0.0165,-0.0401,-0.0228,-0.0478,-0.0674,-0.076,-0.0874,-0.0421,-0.0298,-0.03,-0.0301,-0.0302,-0.0303,0.0562,0.0631,0.0713,0.0832,0.093,0.106,0.1165,0.1285,0.1451,0.1632,0.1631,0.1739,0.1302,0.0779,0.0433,-0.0189,-0.0232,-0.0422,-0.0551,-0.0634,-0.0738,-0.0208,-0.0112,-0.0112,-0.0113,-0.0113,-0.0114,0,0.0666,0.0734,0.0849,0.0992,0.1119,0.1142,0.1316,0.1444,0.1692,0.1902,0.206,0.1977,0.1446,0.0841,0.0012,-0.0457,-0.0668,-0.0731,-0.092,-0.098,-0.053,-0.0554,-0.0505,-0.0505,-0.0505,-0.0505,-0.0505,-0.0504,0.0729,0.085,0.0905,0.1129,0.1232,0.141,0.1524,0.1737,0.1922,0.2234,0.2368,0.2417,0.1975,0.0442,-0.0639,-0.0895,-0.1248,-0.1283,-0.1483,-0.1253,-0.1237,-0.1222,-0.1279,-0.1383,-0.1385,-0.1883,-0.1888,-0.1892]}],[{"header":{"parameterUnit":"m.s-1","parameterCategory":2,"la1":30.2991,"la2":30.254,"lo1":-89.0895,"lo2":-89.0444,"dy":0.0017,"dx":0.0017,"nx":28,"ny":28,"refTime":"2024-05-29T03:00:00:Z","depth":"2","parameterNumber":2,"parameterNumberName":"U-component_of_CURRENTS"},"data":[0,0,0,0,0,0,0,0,0,0,0,0,0,0,0,0,0,0,0,0,0,0,0,0,0,0,0,0,0,0,0,0,0,0,0,0,0,0,0,0,0,0,0,0,0,0,0,0,0,0,0,0,0,0,0,0,0,0,0.3032,0.3033,0,0.3053,0.3053,0.3053,0.3062,0.3063,0.3063,0.3063,0.3005,0.3004,0.3002,0,0,0,0,0,0,0,0,0,0,0,0,0,0.2946,0.2947,0.3032,0.3033,0.3033,0.3053,0.3053,0.3053,0.3062,0.3063,0.3063,0.3063,0.3006,0.3004,0.3002,0,0,0,0,0,0,0,0,0,0,0,0,0,0.2974,0.2948,0.3032,0.3042,0.3043,0.3053,0.3053,0.3053,0.3062,0.3063,0.3063,0.3063,0.3006,0.3004,0.3001,0.298,0,0,0.2994,0.2992,0,0,0,0,0,0,0,0,0.2973,0.2977,0.304,0.3041,0.3043,0.3058,0.3002,0.3026,0.3062,0.3052,0.3063,0.3063,0.3017,0.3013,0.3014,0.2977,0.2974,0.2993,0.2992,0.2991,0.299,0,0,0,0,0,0,0,0.2971,0.2976,0.3038,0.3041,0.3042,0.3027,0.3031,0.3006,0.3029,0.3053,0.3055,0.3061,0.3017,0.3017,0.3013,0.2973,0.2993,0.2991,0.2989,0.2988,0.3116,0.3121,0,0,0,0,0,0,0.2976,0.2975,0.3037,0.3039,0.3011,0.3029,0.3034,0.3051,0.3031,0.303,0.3061,0.3061,0.3021,0.3016,0.3011,0.3149,0.2991,0.2988,0.2987,0.3111,0.3117,0.3122,0,0,0,0,0,0,0.2974,0.2982,0.3037,0.3008,0.3015,0.303,0.3049,0.3051,0.3073,0.3038,0.3035,0.3084,0.3021,0.3014,0.2997,0.314,0.2987,0.2985,0.3105,0.3113,0.312,0.3319,0,0,0,0,0,0,0.2972,0.2981,0.2997,0.3009,0.3017,0.3054,0.3049,0.3051,0.3076,0.3078,0.3056,0.305,0.3021,0.3001,0.2995,0.3134,0.2983,0.3099,0.3109,0.3117,0.3306,0.3332,0.3355,0,0,0,0,0,0.2969,0.2984,0.2998,0.3006,0.3038,0.3055,0.3057,0.3066,0.3077,0.3088,0.307,0.3052,0.306,0.2999,0.2991,0.3134,0.3094,0.3106,0.3117,0.3295,0.3327,0.3354,0,0,0,0,0,0,0.2954,0.2987,0.3003,0.3029,0.3049,0.3058,0.3075,0.3082,0.3079,0.3087,0.3052,0.3044,0.3103,0.3074,0.3009,0.3205,0.3101,0.3111,0.324,0.3269,0.3293,0.3343,0.2981,0,0,0,0,0,0.2961,0.2983,0.301,0.3033,0.3053,0.3071,0.3083,0.3093,0.3092,0.3094,0.3081,0.3097,0.3142,0.3161,0.3161,0.3225,0.3197,0.3334,0.3359,0.3379,0.3419,0.3488,0.3522,0.3159,0.3159,0.3158,0,0,0.2959,0.2983,0.2995,0.3032,0.3056,0.3082,0.3079,0.3111,0.3157,0.3085,0.3135,0.315,0.3168,0.3258,0.3292,0.3253,0.346,0.3393,0.3411,0.344,0.3504,0.3539,0.357,0.3166,0.3165,0.3164,0,0,0.2972,0.3,0.303,0.3046,0.3089,0.3103,0.3119,0.3148,0.3195,0.3217,0.3237,0.3332,0.3323,0.343,0.347,0.3627,0.3567,0.3649,0.3832,0.3899,0.393,0.3956,0.392,0.3942,0.3685,0.3686,0.3686,0,0.2971,0.3025,0.3038,0.3068,0.3117,0.3118,0.318,0.3204,0.3224,0.3316,0.325,0.3422,0.3431,0.3651,0.3732,0.3693,0.3664,0.3714,0.3931,0.3956,0.398,0.3937,0.3959,0.3697,0.3695,0.3694,0.3693,0,0.2998,0.3052,0.3074,0.3127,0.3171,0.3217,0.3271,0.3327,0.3374,0.3433,0.3624,0.365,0.378,0.3839,0.3826,0.4074,0.3971,0.3929,0.3851,0.4029,0.3971,0.399,0.3712,0.3708,0.3705,0.3702,0,0,0.2979,0.3082,0.3091,0.3156,0.3226,0.3262,0.3378,0.3525,0.3627,0.3697,0.3874,0.4046,0.4103,0.416,0.4211,0.4309,0.4445,0.4213,0.4211,0.4167,0.4516,0.4391,0.4396,0.4428,0.4434,0.4439,0.4391,0,0.3018,0.3116,0.3166,0.3269,0.3344,0.342,0.3522,0.365,0.3748,0.3879,0.406,0.4182,0.4213,0.4288,0.442,0.443,0.4512,0.4457,0.4361,0.4358,0.4219,0.4423,0.4105,0.4033,0.4408,0.4411,0.4413,0,0.3035,0.3118,0.3242,0.3412,0.3454,0.3497,0.3716,0.3803,0.4009,0.4105,0.4317,0.4369,0.4614,0.4536,0.472,0.4672,0.4637,0.4618,0.4614,0.4452,0.4272,0.3929,0.4051,0.4443,0.444,0.4438,0.4436,0,0.3028,0.318,0.3301,0.3337,0.3492,0.3599,0.3696,0.3893,0.3993,0.4238,0.431,0.458,0.4659,0.4746,0.4757,0.4732,0.4844,0.4781,0.4634,0.4617,0.4311,0.4261,0.4888,0.4888,0.4888,0.4889,0.4889,0,0.3044,0.3131,0.3295,0.3326,0.3482,0.361,0.3754,0.3907,0.4084,0.4204,0.4415,0.4511,0.471,0.4783,0.4796,0.4786,0.4881,0.4715,0.4646,0.4365,0.4322,0.4651,0.4624,0.4886,0.4887,0.4887,0.4888,0,0.2986,0.3087,0.3213,0.3401,0.3457,0.3559,0.3715,0.3811,0.4002,0.4151,0.4224,0.4459,0.4577,0.4707,0.4796,0.4785,0.4797,0.4743,0.4361,0.4254,0.4497,0.4482,0.46,0.4596,0.4593,0.4591,0.4588,0,0.2975,0.3024,0.3209,0.3267,0.334,0.3475,0.3558,0.3755,0.3837,0.4086,0.4144,0.4316,0.4408,0.4516,0.4548,0.4568,0.4672,0.4248,0.4202,0.4572,0.4492,0.4481,0.447,0.3827,0.3819,0.3812,0.3807,0,0.2939,0.2985,0.3065,0.3186,0.3276,0.3365,0.3493,0.3512,0.3735,0.3839,0.3948,0.4027,0.4182,0.4093,0.4168,0.4135,0.4248,0.4109,0.4629,0.397,0.3847,0.3767,0.3781,0.3747,0.3753,0.3757,0.376,0.3763,0.2892,0.2915,0.2998,0.3094,0.3192,0.3235,0.3227,0.3323,0.3374,0.3475,0.3635,0.3661,0.3764,0.3716,0.3625,0.3601,0.3888,0.3745,0.3765,0.3792,0.3733,0.3615,0.3452,0.3456,0.3459,0.3463,0.3465,0,0.2814,0.2828,0.2908,0.2982,0.3002,0.3115,0.3161,0.3081,0.3036,0.3182,0.3219,0.3014,0.299,0.31,0.2982,0.3013,0.2974,0.289,0.2819,0.2884,0.294,0.2836,0.2317,0.2312,0.2308,0.2305,0,0,0.2766,0.2764,0.2778,0.2763,0.2806,0.2756,0.2729,0.2651,0.267,0.2583,0.2593,0.282,0.2996,0.2592,0.2576,0.242,0.2613,0.2325,0.3259,0.3239,0.3288,0.3463,0.338,0,0,0,0,0]},{"header":{"parameterUnit":"m.s-1","parameterCategory":2,"la1":30.2991,"la2":30.254,"lo1":-89.0895,"lo2":-89.0444,"dy":0.0017,"dx":0.0017,"nx":28,"ny":28,"refTime":"2024-05-29T03:00:00:Z","depth":"2","parameterNumber":3,"parameterNumberName":"V-component_of_CURRENTS"},"data":[0,0,0,0,0,0,0,0,0,0,0,0,0,0,0,0,0,0,0,0,0,0,0,0,0,0,0,0,0,0,0,0,0,0,0,0,0,0,0,0,0,0,0,0,0,0,0,0,0,0,0,0,0,0,0,0,0,0,-0.0002,-0.0003,0,-0.0098,-0.0099,-0.01,-0.0158,-0.0158,-0.0158,-0.0158,-0.0251,-0.0253,-0.0256,0,0,0,0,0,0,0,0,0,0,0,0,0,0.0052,0.0052,-0.0002,-0.0003,-0.0004,-0.0097,-0.0099,-0.0101,-0.0158,-0.0158,-0.0158,-0.0158,-0.025,-0.0253,-0.0256,0,0,0,0,0,0,0,0,0,0,0,0,0,-0.0003,0.0052,-0.0002,-0.0042,-0.0046,-0.0097,-0.0099,-0.0101,-0.0158,-0.0158,-0.0158,-0.0158,-0.0249,-0.0253,-0.0257,-0.0279,0,0,-0.0268,-0.0269,0,0,0,0,0,0,0,0,0.0001,-0.0005,-0.0035,-0.0039,-0.0044,-0.0113,-0.0114,-0.016,-0.0158,-0.0119,-0.0158,-0.0158,-0.0203,-0.021,-0.0233,-0.0284,-0.0288,-0.0268,-0.027,-0.0272,-0.0273,0,0,0,0,0,0,0,0.0005,-0.0002,-0.0043,-0.0036,-0.0041,-0.0081,-0.0089,-0.0124,-0.0162,-0.0122,-0.0126,-0.0132,-0.0206,-0.0229,-0.0235,-0.0289,-0.0268,-0.0271,-0.0274,-0.0275,-0.0382,-0.0383,0,0,0,0,0,0,0.0026,0.0002,-0.004,-0.0046,-0.0018,-0.0082,-0.009,-0.0093,-0.0162,-0.0171,-0.0131,-0.0134,-0.0222,-0.0231,-0.0238,-0.0254,-0.0272,-0.0276,-0.0278,-0.0382,-0.0383,-0.0383,0,0,0,0,0,0,0.0028,0.0024,-0.0036,-0.0022,-0.0032,-0.0082,-0.0086,-0.0095,-0.0116,-0.0168,-0.0178,-0.0141,-0.0223,-0.0233,-0.0249,-0.0258,-0.0277,-0.0281,-0.0381,-0.0382,-0.0383,-0.0294,0,0,0,0,0,0,0.003,0.0025,0.0027,-0.002,-0.0032,-0.0056,-0.0086,-0.0097,-0.0118,-0.0122,-0.018,-0.0189,-0.0224,-0.0243,-0.0253,-0.0263,-0.0283,-0.038,-0.0382,-0.0383,-0.0296,-0.0291,-0.0288,0,0,0,0,0,0.0032,0.0041,0.0028,0.0022,-0.0026,-0.0056,-0.0065,-0.0104,-0.0118,-0.0124,-0.0151,-0.0187,-0.0259,-0.0246,-0.0257,-0.0269,-0.038,-0.0381,-0.0383,-0.0298,-0.0292,-0.0288,0,0,0,0,0,0,0.0063,0.0035,0.0019,0.0018,-0.0012,-0.0064,-0.007,-0.0098,-0.0128,-0.0127,-0.0178,-0.0188,-0.0205,-0.0253,-0.0237,-0.0308,-0.0333,-0.0337,-0.0265,-0.0261,-0.0256,-0.0221,-0.0287,0,0,0,0,0,0.0073,0.0072,0.0036,0.0033,0.0025,-0.0023,-0.004,-0.0064,-0.0095,-0.011,-0.015,-0.0195,-0.0224,-0.025,-0.0281,-0.0316,-0.0338,-0.034,-0.0336,-0.0332,-0.0314,-0.0364,-0.0361,-0.0388,-0.0388,-0.0388,0,0,0.0082,0.0068,0.0066,0.004,0.0015,0.0031,-0.0033,-0.0051,-0.0037,-0.0114,-0.0113,-0.0169,-0.0224,-0.0252,-0.027,-0.0293,-0.0331,-0.0334,-0.0329,-0.0313,-0.0365,-0.0362,-0.0359,-0.0389,-0.0389,-0.0388,0,0,0.0111,0.0093,0.0106,0.0099,0.0075,0.0059,0.0061,0.0014,-0.0009,-0.0012,-0.0069,-0.0125,-0.0167,-0.0226,-0.0253,-0.0251,-0.0293,-0.028,-0.0244,-0.0293,-0.029,-0.0289,-0.028,-0.0278,-0.0295,-0.0295,-0.0295,0,0.0123,0.0141,0.0103,0.0126,0.0133,0.0087,0.0113,0.0097,0.0049,0.0039,0.001,-0.0078,-0.0148,-0.0185,-0.0203,-0.0239,-0.0254,-0.0251,-0.0284,-0.0283,-0.0282,-0.0275,-0.0274,-0.0291,-0.0291,-0.0292,-0.0292,0,0.0174,0.0191,0.0202,0.0229,0.0228,0.0242,0.0227,0.0223,0.0198,0.0172,0.0129,0.0026,-0.0033,-0.0088,-0.0144,-0.0197,-0.02,-0.0254,-0.0285,-0.0274,-0.0267,-0.0268,-0.0285,-0.0287,-0.0288,-0.0289,0,0,0.02,0.0231,0.0238,0.0275,0.0285,0.03,0.0331,0.0338,0.037,0.0299,0.0305,0.019,0.0107,0.0066,-0.0048,-0.0125,-0.0154,-0.0196,-0.02,-0.0165,-0.0215,-0.0242,-0.0245,-0.0216,-0.0217,-0.0217,-0.0199,0,0.0252,0.0325,0.0317,0.0404,0.0447,0.0431,0.0469,0.0472,0.0456,0.0455,0.0334,0.0299,0.0177,0.0119,0.0031,-0.0109,-0.0156,-0.015,-0.0251,-0.0253,-0.0261,-0.0248,-0.0211,-0.0195,-0.02,-0.02,-0.02,0,0.0313,0.0357,0.0439,0.0505,0.052,0.057,0.0629,0.0653,0.0642,0.0609,0.0547,0.0465,0.034,0.0227,0.0045,0.0055,-0.0063,-0.0169,-0.0171,-0.0226,-0.0282,-0.0218,-0.0196,-0.0201,-0.0201,-0.0201,-0.0201,0,0.0379,0.0448,0.0521,0.055,0.0616,0.0651,0.0687,0.0704,0.0734,0.0702,0.0712,0.0578,0.0511,0.0338,0.0112,0.0078,-0.0068,-0.0138,-0.0248,-0.0248,-0.0251,-0.0252,-0.0237,-0.0237,-0.0237,-0.0237,-0.0237,0,0.0452,0.0517,0.0568,0.0626,0.0726,0.0732,0.0831,0.0837,0.0852,0.0917,0.0788,0.0795,0.0528,0.0411,0.0193,-0.0013,0.0005,-0.0218,-0.0253,-0.0218,-0.0216,-0.0264,-0.0267,-0.0237,-0.0237,-0.0237,-0.0237,0,0.052,0.0549,0.0653,0.0734,0.0767,0.0845,0.0937,0.1005,0.0996,0.1073,0.1063,0.0966,0.0811,0.0565,0.0298,0.0111,-0.0106,-0.018,-0.0093,-0.0121,-0.026,-0.026,-0.028,-0.0281,-0.0282,-0.0283,-0.0283,0,0.0563,0.0625,0.0744,0.0813,0.0858,0.0966,0.1043,0.1072,0.1145,0.1191,0.1235,0.1125,0.1062,0.0689,0.033,0.0004,-0.0071,-0.0168,-0.0256,-0.0236,-0.0269,-0.0267,-0.0265,-0.02,-0.02,-0.02,-0.02,0,0.0657,0.0695,0.0784,0.092,0.1022,0.1139,0.125,0.1332,0.1386,0.1443,0.1499,0.1454,0.1124,0.0787,0.0339,0.0114,-0.0125,-0.0177,-0.0178,-0.0211,-0.0165,-0.0196,-0.0196,-0.0199,-0.0199,-0.0199,-0.0199,-0.0199,0.0726,0.0803,0.0914,0.1047,0.1157,0.1298,0.1406,0.1519,0.1648,0.173,0.1688,0.1611,0.1255,0.0665,0.0285,-0.011,-0.0104,-0.0254,-0.0253,-0.0252,-0.0262,-0.0223,-0.0264,-0.0264,-0.0265,-0.0265,-0.0265,0,0.0811,0.09,0.103,0.1188,0.1312,0.1355,0.1534,0.1625,0.1785,0.1843,0.1855,0.1509,0.1142,0.0725,0.014,-0.0207,-0.0234,-0.0314,-0.0277,-0.0274,-0.0273,-0.0285,-0.0292,-0.0294,-0.0295,-0.0296,0,0,0.0865,0.0998,0.1069,0.1292,0.1399,0.1561,0.1667,0.1785,0.1855,0.1899,0.1849,0.1736,0.1255,0.0824,0.0361,0.0028,-0.0044,-0.0032,0.0031,0.0134,0.0139,-0.0193,-0.0203,0,0,0,0,0]}],[{"header":{"parameterUnit":"m.s-1","parameterCategory":2,"la1":30.2991,"la2":30.254,"lo1":-89.0895,"lo2":-89.0444,"dy":0.0017,"dx":0.0017,"nx":28,"ny":28,"refTime":"2024-05-29T03:00:00:Z","depth":"4","parameterNumber":2,"parameterNumberName":"U-component_of_CURRENTS"},"data":[0,0,0,0,0,0,0,0,0,0,0,0,0,0,0,0,0,0,0,0,0,0,0,0,0,0,0,0,0,0,0,0,0,0,0,0,0,0,0,0,0,0,0,0,0,0,0,0,0,0,0,0,0,0,0,0,0,0,0.1655,0.1656,0,0.1682,0.1682,0.1682,0.1714,0.1715,0.1716,0.1716,0.17,0.1699,0.1698,0,0,0,0,0,0,0,0,0,0,0,0,0,0.166,0.166,0.1655,0.1656,0.1657,0.1682,0.1682,0.1681,0.1714,0.1715,0.1716,0.1717,0.1701,0.1699,0.1698,0,0,0,0,0,0,0,0,0,0,0,0,0,0.1665,0.1659,0.1655,0.1679,0.1682,0.1682,0.1682,0.1681,0.1713,0.1715,0.1716,0.1717,0.1701,0.1699,0.1697,0.1657,0,0,0.1691,0.1691,0,0,0,0,0,0,0,0,0.1665,0.1664,0.1675,0.1678,0.1681,0.17,0.1678,0.1673,0.1713,0.1696,0.1717,0.1718,0.1698,0.1697,0.1692,0.1656,0.1656,0.1691,0.169,0.1689,0.1689,0,0,0,0,0,0,0,0.1664,0.1663,0.1661,0.1676,0.1679,0.1699,0.17,0.1677,0.1684,0.1698,0.1701,0.1712,0.1699,0.1694,0.1692,0.1655,0.1691,0.169,0.1688,0.1688,0.1649,0.1649,0,0,0,0,0,0,0.1667,0.1663,0.166,0.1662,0.1681,0.1698,0.1699,0.1688,0.1686,0.1689,0.171,0.1713,0.1697,0.1694,0.1692,0.1726,0.1689,0.1687,0.1686,0.1649,0.1649,0.1649,0,0,0,0,0,0,0.1667,0.1666,0.1659,0.1668,0.167,0.1696,0.1684,0.1688,0.1724,0.1697,0.1698,0.1747,0.1698,0.1694,0.1688,0.1723,0.1686,0.1685,0.1649,0.1649,0.1649,0.1742,0,0,0,0,0,0,0.1666,0.1665,0.1677,0.1668,0.1669,0.1666,0.1683,0.1688,0.1728,0.1733,0.1727,0.1725,0.1699,0.1691,0.1686,0.1719,0.1683,0.1648,0.1649,0.1649,0.1738,0.1745,0.1751,0,0,0,0,0,0.1666,0.1671,0.1676,0.1678,0.1677,0.1666,0.1668,0.1689,0.1729,0.173,0.1733,0.1728,0.169,0.1689,0.1683,0.1717,0.1648,0.1649,0.1649,0.1736,0.1744,0.1751,0,0,0,0,0,0,0.1683,0.1675,0.1681,0.1685,0.1681,0.1674,0.1697,0.1713,0.1719,0.1742,0.1723,0.1719,0.1727,0.17,0.17,0.1703,0.1671,0.167,0.1738,0.1746,0.1752,0.1723,0.1682,0,0,0,0,0,0.1691,0.1691,0.1681,0.1687,0.1693,0.1704,0.1716,0.1726,0.1726,0.1735,0.1736,0.1731,0.1715,0.1716,0.1691,0.1691,0.1727,0.1708,0.1715,0.172,0.169,0.1841,0.186,0.165,0.165,0.165,0,0,0.1702,0.1699,0.1702,0.1692,0.1701,0.1693,0.1715,0.1736,0.1738,0.1728,0.1752,0.1752,0.1717,0.1717,0.1719,0.1707,0.1795,0.1721,0.1726,0.1692,0.1843,0.1865,0.1883,0.1651,0.1651,0.1651,0,0,0.1703,0.1721,0.1714,0.171,0.1723,0.1721,0.1737,0.1748,0.1769,0.1772,0.1776,0.1788,0.1772,0.1754,0.174,0.1759,0.1821,0.1778,0.1793,0.1942,0.1962,0.198,0.2048,0.2071,0.1787,0.1787,0.1787,0,0.173,0.1699,0.1713,0.1701,0.171,0.1737,0.1731,0.174,0.1751,0.178,0.1786,0.1822,0.1775,0.18,0.1779,0.1774,0.1863,0.1778,0.1957,0.1975,0.1992,0.2058,0.2082,0.1791,0.1791,0.179,0.179,0,0.1694,0.1692,0.1696,0.1682,0.1694,0.1697,0.1709,0.1745,0.1788,0.1801,0.1865,0.1844,0.1878,0.1864,0.1802,0.19,0.1925,0.1957,0.1953,0.202,0.2083,0.2107,0.1798,0.1796,0.1795,0.1794,0,0,0.17,0.1675,0.1681,0.1687,0.169,0.1703,0.1724,0.175,0.1828,0.1844,0.193,0.1879,0.1941,0.1924,0.1925,0.1991,0.2138,0.2015,0.2021,0.2103,0.246,0.2272,0.228,0.2264,0.2269,0.2273,0.2456,0,0.1674,0.1649,0.1643,0.1651,0.165,0.1692,0.1728,0.1771,0.1834,0.1924,0.1941,0.2017,0.1954,0.2022,0.2079,0.211,0.2208,0.2082,0.2358,0.2362,0.221,0.2303,0.2287,0.2474,0.2479,0.2483,0.2486,0,0.1629,0.1627,0.1621,0.167,0.1685,0.1709,0.1833,0.1871,0.1976,0.2048,0.2145,0.2178,0.222,0.2206,0.2351,0.2305,0.2379,0.2408,0.242,0.2218,0.222,0.239,0.253,0.2526,0.2523,0.252,0.2518,0,0.162,0.162,0.1627,0.1632,0.1686,0.1741,0.1804,0.1923,0.1994,0.2166,0.225,0.2355,0.2426,0.254,0.2536,0.2508,0.2711,0.2706,0.262,0.2607,0.2683,0.2662,0.2882,0.2882,0.2881,0.2881,0.288,0,0.157,0.1586,0.1643,0.1649,0.1727,0.1786,0.1919,0.2012,0.2156,0.2244,0.2349,0.2433,0.253,0.2617,0.2636,0.2669,0.2835,0.2614,0.2654,0.2711,0.2691,0.27,0.2677,0.2888,0.2886,0.2885,0.2884,0,0.1524,0.1549,0.1577,0.1666,0.1715,0.1788,0.1947,0.2032,0.2216,0.234,0.2396,0.2524,0.2644,0.2715,0.2869,0.2783,0.2844,0.2848,0.2864,0.2904,0.2611,0.259,0.2753,0.2749,0.2744,0.2741,0.2738,0,0.1467,0.1481,0.1594,0.163,0.167,0.1796,0.1872,0.205,0.2125,0.2362,0.2381,0.2557,0.2626,0.2689,0.2781,0.2868,0.2848,0.2853,0.2714,0.2581,0.2606,0.2591,0.2576,0.2732,0.2731,0.273,0.2729,0,0.1377,0.1451,0.1485,0.1561,0.1636,0.1719,0.1838,0.1883,0.2081,0.2254,0.2343,0.2403,0.2531,0.2591,0.2692,0.2739,0.2807,0.2809,0.2816,0.2687,0.2557,0.2582,0.2572,0.2714,0.2716,0.2718,0.2719,0,0.1333,0.1335,0.1402,0.1464,0.1543,0.1582,0.1679,0.1764,0.187,0.2116,0.2141,0.2342,0.2502,0.2532,0.2611,0.2642,0.2597,0.2494,0.2516,0.2533,0.2368,0.2165,0.2244,0,0,0,0,0,0.1271,0.1259,0.1291,0.1333,0.1404,0.1462,0.1608,0.1706,0.1895,0.191,0.2029,0.2145,0.2255,0.2347,0.2339,0.2501,0.2594,0.2475,0.2481,0.2636,0.2652,0.2473,0,0,0,0,0,0,0.1226,0.1242,0.1242,0.1208,0.122,0.1283,0.1373,0.1512,0.1542,0.1754,0.1835,0.2003,0.2149,0.225,0.2295,0.2326,0.2282,0.261,0.2604,0.2627,0.2642,0.2655,0.2476,0,0,0,0,0]},{"header":{"parameterUnit":"m.s-1","parameterCategory":2,"la1":30.2991,"la2":30.254,"lo1":-89.0895,"lo2":-89.0444,"dy":0.0017,"dx":0.0017,"nx":28,"ny":28,"refTime":"2024-05-29T03:00:00:Z","depth":"4","parameterNumber":3,"parameterNumberName":"V-component_of_CURRENTS"},"data":[0,0,0,0,0,0,0,0,0,0,0,0,0,0,0,0,0,0,0,0,0,0,0,0,0,0,0,0,0,0,0,0,0,0,0,0,0,0,0,0,0,0,0,0,0,0,0,0,0,0,0,0,0,0,0,0,0,0,0.0133,0.0132,0,0.0104,0.0103,0.0103,0.0066,0.0066,0.0065,0.0064,0.0051,0.0052,0.0052,0,0,0,0,0,0,0,0,0,0,0,0,0,0.0132,0.0132,0.0133,0.0132,0.0132,0.0104,0.0103,0.0103,0.0066,0.0066,0.0065,0.0064,0.0051,0.0052,0.0052,0,0,0,0,0,0,0,0,0,0,0,0,0,0.0121,0.0132,0.0133,0.011,0.0108,0.0104,0.0103,0.0103,0.0066,0.0066,0.0065,0.0064,0.0051,0.0052,0.0052,0.0071,0,0,0.0053,0.0053,0,0,0,0,0,0,0,0,0.0121,0.0121,0.0114,0.0112,0.0109,0.0088,0.0098,0.0093,0.0067,0.0082,0.0064,0.0063,0.0066,0.0065,0.0061,0.0071,0.007,0.0053,0.0053,0.0053,0.0053,0,0,0,0,0,0,0,0.0122,0.0121,0.0121,0.0114,0.0111,0.0094,0.0091,0.0097,0.0079,0.0081,0.0078,0.0075,0.0064,0.0061,0.006,0.007,0.0053,0.0053,0.0053,0.0053,0.0127,0.0128,0,0,0,0,0,0,0.0128,0.0123,0.0122,0.012,0.0113,0.0094,0.0092,0.0095,0.0079,0.0075,0.0076,0.0074,0.0061,0.006,0.006,0.0107,0.0053,0.0053,0.0054,0.0125,0.0127,0.0129,0,0,0,0,0,0,0.0129,0.0129,0.0123,0.012,0.0118,0.0096,0.01,0.0095,0.0093,0.0075,0.0072,0.0078,0.006,0.0059,0.0078,0.0105,0.0053,0.0054,0.0123,0.0126,0.0128,0.0184,0,0,0,0,0,0,0.0129,0.0129,0.0136,0.0121,0.0119,0.0132,0.0101,0.0095,0.0092,0.0089,0.0076,0.0074,0.0059,0.0077,0.0078,0.0104,0.0054,0.0121,0.0124,0.0127,0.018,0.0189,0.0196,0,0,0,0,0,0.0129,0.0144,0.0137,0.0137,0.0129,0.0133,0.0131,0.0111,0.0094,0.0103,0.0096,0.0074,0.0099,0.0079,0.0079,0.0106,0.0119,0.0123,0.0127,0.0177,0.0187,0.0195,0,0,0,0,0,0,0.0146,0.0141,0.0133,0.0145,0.0144,0.0127,0.0135,0.0118,0.0119,0.0118,0.0094,0.0093,0.0118,0.011,0.0089,0.014,0.0107,0.0111,0.0145,0.0154,0.0162,0.0162,0.0054,0,0,0,0,0,0.0154,0.0164,0.0157,0.0168,0.0172,0.0155,0.0154,0.0143,0.0139,0.0137,0.0128,0.0128,0.0136,0.0142,0.0147,0.0176,0.013,0.0196,0.0203,0.021,0.0213,0.0171,0.0174,0.0142,0.0142,0.0142,0,0,0.0162,0.0162,0.0166,0.0172,0.0171,0.0195,0.0153,0.0163,0.0182,0.0139,0.0166,0.0154,0.015,0.018,0.0191,0.0175,0.0193,0.0215,0.022,0.0219,0.0175,0.0178,0.018,0.0145,0.0144,0.0144,0,0,0.0192,0.0189,0.0212,0.0222,0.0229,0.0224,0.0231,0.0225,0.0223,0.0248,0.0221,0.0221,0.0243,0.0235,0.0237,0.0293,0.0234,0.0304,0.0344,0.0304,0.0306,0.0306,0.0235,0.0229,0.031,0.031,0.031,0,0.02,0.0234,0.022,0.0252,0.0271,0.0244,0.0284,0.0283,0.0282,0.0284,0.0271,0.0283,0.0268,0.0295,0.031,0.0308,0.0265,0.0306,0.0311,0.0311,0.0311,0.0238,0.023,0.0313,0.0313,0.0313,0.0312,0,0.0253,0.0285,0.0304,0.034,0.0356,0.0386,0.0389,0.0398,0.0391,0.038,0.04,0.0379,0.0381,0.0381,0.0361,0.0366,0.0328,0.032,0.028,0.0317,0.0238,0.0229,0.0318,0.0317,0.0316,0.0315,0,0,0.0263,0.0328,0.0337,0.0376,0.0409,0.043,0.0466,0.0485,0.0501,0.0495,0.0509,0.0512,0.0479,0.0479,0.0452,0.0416,0.0362,0.0372,0.0368,0.0287,0.0247,0.0223,0.021,0.0353,0.0352,0.0352,0.0185,0,0.0312,0.0395,0.0413,0.0496,0.0544,0.0543,0.058,0.0589,0.0584,0.0586,0.0553,0.0561,0.0526,0.0524,0.0485,0.0398,0.0345,0.0406,0.0236,0.023,0.0194,0.0202,0.035,0.0178,0.0176,0.0174,0.0173,0,0.0364,0.0416,0.0508,0.0584,0.0604,0.0647,0.0692,0.072,0.0708,0.0703,0.0691,0.0649,0.0608,0.0568,0.0436,0.0477,0.0367,0.0289,0.0281,0.0234,0.0191,0.014,0.0156,0.0158,0.0159,0.016,0.0161,0,0.039,0.0483,0.0561,0.0591,0.0668,0.0706,0.0741,0.0754,0.0783,0.077,0.077,0.0717,0.0684,0.0567,0.0408,0.0416,0.0236,0.0225,0.0093,0.0088,0.0131,0.0132,0.0113,0.0113,0.0114,0.0114,0.0114,0,0.044,0.0503,0.0583,0.0631,0.072,0.0754,0.0834,0.0847,0.0868,0.0899,0.0834,0.0828,0.0681,0.056,0.0415,0.0227,0.0238,0.0092,0.005,0.0157,0.0164,0.0122,0.0125,0.0108,0.0109,0.011,0.0111,0,0.0463,0.0515,0.0611,0.0706,0.0742,0.0806,0.0907,0.0952,0.096,0.0992,0.0989,0.0897,0.0744,0.0569,0.0353,0.0235,0.0059,-0.0019,0.0086,0.0053,-0.0074,-0.0065,-0.0183,-0.0185,-0.0186,-0.0188,-0.0189,0,0.0484,0.0539,0.0662,0.0724,0.0776,0.0877,0.0947,0.1,0.1044,0.1034,0.104,0.0904,0.0819,0.0499,0.0313,0.0024,-0.0014,-0.0122,-0.0077,-0.0072,-0.0101,-0.0089,-0.0079,-0.0192,-0.0192,-0.0193,-0.0193,0,0.0526,0.0569,0.0645,0.0766,0.086,0.0965,0.106,0.1095,0.114,0.1144,0.1079,0.0916,0.0727,0.0493,0.026,0.0061,-0.005,-0.0141,-0.0139,-0.0097,-0.0084,-0.0109,-0.0097,-0.0199,-0.0199,-0.0198,-0.0198,0,0.0548,0.0602,0.0697,0.0806,0.0919,0.1014,0.107,0.1119,0.116,0.1141,0.1115,0.0925,0.082,0.0508,0.0304,0.0099,0.0047,-0.0016,-0.0021,-0.0016,0.0091,0.0135,0.0048,0,0,0,0,0,0.0566,0.0629,0.073,0.0848,0.0956,0.1025,0.1126,0.1168,0.1203,0.1166,0.1144,0.0973,0.0665,0.0534,0.0324,0.0254,0.0001,-0.0002,-0.0076,-0.0233,-0.0226,-0.0128,0,0,0,0,0,0,0.058,0.0669,0.0726,0.0861,0.0941,0.1063,0.1131,0.1159,0.1137,0.1137,0.098,0.0912,0.0615,0.0786,0.0317,0.0255,0.0175,-0.0139,-0.0144,-0.0237,-0.0231,-0.0225,-0.0122,0,0,0,0,0]}]]